Scottsbluff, NE

2:33 PM MDT on September 18, 2019 (GMT -0600)
Heilig

Weather History for KBFF - July, 2019

Change the Weather History Date:

Tuesday, July 23, 2019

  Actual Average Record
Temperature  
Mean Temperature 75 °F -  
Max Temperature 91 °F 88 °F 104 °F (1941)
Min Temperature 59 °F 59 °F 47 °F (1933)
Cooling Degree Days 10    
Growing Degree Days 25 (Base 50)    
Moisture  
Dew Point 60 °F    
Average Humidity 63    
Maximum Humidity 90    
Minimum Humidity 33    
Precipitation  
Precipitation 0.00 in - - ()
Sea Level Pressure  
Sea Level Pressure 30.10 in    
Wind  
Wind Speed 12 mph (ESE)    
Max Wind Speed 16 mph    
Max Gust Speed 21 mph    
Visibility 10 miles    
Events      
Averages and records for this station are not official NWS values.
T = Trace of Precipitation, MM = Missing Value Source: NWS Daily Summary

Daily Weather History Graph

Daily Weather History Graph

Search for Another Location

Airport or City:

Astronomy

Jul. 23, 2019 Rise Set
Actual Time 5:39 AM MDT 8:21 PM MDT
Civil Twilight 5:06 AM MDT 8:54 PM MDT
Nautical Twilight 4:26 AM MDT 9:34 PM MDT
Astronomical Twilight 3:39 AM MDT 10:21 PM MDT
Moon No Moon Rise 12:00 PM MDT (7/23)
Length of Visible Light 15h 47m
Length of Day
14h 42m
Waning Gibbous, 63% of the Moon is Illuminated
Jul 23
Waning Gibbous
Jul 24
Last Quarter
Jul 31
New
Aug 7
First Quarter
Aug 15
Full

Hourly Weather History & Observations

Time (MDT) Temp. Heat Index Dew Point Humidity Pressure Visibility Wind Dir Wind Speed Gust Speed Precip Events Conditions
12:53 AM 66.0 °F - 57.9 °F 75% 30.19 in 10.0 mi ESE 10.4 mph - N/A   Mostly Cloudy
1:53 AM 63.0 °F - 57.9 °F 84% 30.18 in 10.0 mi ESE 10.4 mph - N/A   Clear
2:53 AM 63.0 °F - 57.0 °F 81% 30.17 in 10.0 mi ESE 10.4 mph - N/A   Clear
3:53 AM 61.0 °F - 57.0 °F 87% 30.17 in 10.0 mi ESE 10.4 mph - N/A   Clear
4:53 AM 60.1 °F - 55.9 °F 86% 30.18 in 10.0 mi ESE 11.5 mph - N/A   Clear
5:53 AM 59.0 °F - 55.9 °F 90% 30.19 in 10.0 mi ESE 12.7 mph - N/A   Clear
6:53 AM 61.0 °F - 57.0 °F 87% 30.18 in 10.0 mi ESE 12.7 mph - N/A   Clear
7:53 AM 64.9 °F - 57.0 °F 75% 30.18 in 10.0 mi ESE 16.1 mph - N/A   Clear
8:53 AM 66.0 °F - 57.9 °F 75% 30.18 in 10.0 mi ESE 9.2 mph - N/A   Clear
9:53 AM 73.9 °F - 59.0 °F 59% 30.15 in 10.0 mi ESE 8.1 mph - N/A   Clear
10:53 AM 77.0 °F - 60.1 °F 56% 30.14 in 10.0 mi SE 12.7 mph - N/A   Clear
11:53 AM 80.1 °F 81.1 °F 61.0 °F 52% 30.12 in 10.0 mi ESE 11.5 mph - N/A   Clear
12:53 PM 84.9 °F 85.4 °F 62.1 °F 46% 30.08 in 10.0 mi SSE 11.5 mph - N/A   Clear
1:53 PM 88.0 °F 87.9 °F 61.0 °F 40% 30.06 in 10.0 mi SE 10.4 mph - N/A   Clear
2:53 PM 91.0 °F 90.9 °F 61.0 °F 36% 30.04 in 10.0 mi SSE 15.0 mph 20.7 mph N/A   Clear
3:53 PM 91.9 °F 91.2 °F 59.0 °F 33% 30.02 in 10.0 mi SSE 10.4 mph - N/A   Clear
4:53 PM 91.9 °F 91.2 °F 59.0 °F 33% 30.00 in 10.0 mi ESE 12.7 mph - N/A   Clear
5:53 PM 88.0 °F 89.3 °F 64.0 °F 45% 30.00 in 10.0 mi East 12.7 mph - N/A   Clear
6:53 PM 86.0 °F 87.3 °F 64.0 °F 48% 30.01 in 10.0 mi ESE 13.8 mph - N/A   Clear
7:53 PM 80.1 °F 81.2 °F 62.1 °F 54% 30.03 in 10.0 mi ESE 12.7 mph - N/A   Clear
8:53 PM 75.9 °F - 62.1 °F 62% 30.04 in 10.0 mi ESE 12.7 mph - N/A   Clear
9:53 PM 73.0 °F - 61.0 °F 66% 30.04 in 10.0 mi ESE 9.2 mph - N/A   Clear
10:53 PM 71.1 °F - 61.0 °F 70% 30.04 in 10.0 mi ESE 13.8 mph - N/A   Clear
11:53 PM 68.0 °F - 61.0 °F 78% 30.04 in 10.0 mi ESE 13.8 mph - N/A   Clear